Regional Weather Roundup
Issued by NWS

Home | Current Version | Previous Version | Text Only | Print | Product List | Glossary On
Versions: 1 2 3 4 5 6 7 8 9 10 11 12 13 14 15 16 17 18 19 20 21 22 23 24 25 26 27 28 29 30 31 32 33 34 35 36 37 38 39 40 41 42 43 44 45 46 47 48 49 50
000
ASUS43 KDTX 260810
RWRMI
MICHIGAN HOURLY REGIONAL WEATHER ROUNDUP
NATIONAL WEATHER SERVICE DETROIT/PONTIAC MI
400 AM EDT SAT JUL 26 2014

NOTE: "FAIR" INDICATES FEW OR NO CLOUDS BELOW 12,000 FEET WITH NO
SIGNIFICANT WEATHER AND/OR OBSTRUCTION TO VISIBILITY.

MIZ047>049-052>055-059>063-066>070-074>076-081>083-260900-
SOUTHEAST LOWER MICHIGAN

CITY           SKY/WX    TMP DP  RH WIND       PRES   REMARKS
ADRIAN         CLEAR     60  57  89 CALM      29.95F
ALMA           CLEAR     60  57  91 S5        29.91F
ANN ARBOR      CLEAR     55  53  93 CALM      29.94F
BAD AXE        CLOUDY    65  56  73 SW8       29.92S
CARO           MOCLDY    63  59  88 S3        29.92S
DETROIT CITY   CLEAR     68  56  65 SW6       29.95S
DETROIT        PTCLDY    62  57  83 S3        29.95F
FLINT          CLEAR     61  55  81 CALM      29.93F
GROSSE ILE     CLEAR     68  57  68 SW5       29.94S
HILLSDALE      CLEAR     59  58  99 CALM      29.95F
HOWELL         CLEAR     60  56  87 S5        29.93F

CITY           SKY/WX    TMP DP  RH WIND       PRES   REMARKS
JACKSON        CLEAR     60  57  89 S3        29.94F
LAMBERTVILLE   CLEAR     61  55  82 CALM      29.95F
LANSING        CLEAR     61  57  87 S6        29.92F
LAPEER         FAIR      61  55  81 CALM      29.94F
MASON          CLEAR     59  56  89 S3        29.93F
MONROE         FOG       61  59  94 CALM      29.94S VSB 3/4
MT. CLEMENS    CLEAR     64  55  72 SW3       29.94S
PONTIAC        CLEAR     62  53  72 CALM      29.94F
PORT HOPE        N/A     67  56  67 SW7       29.89S
PORT HURON     CLOUDY    61  55  82 CALM      29.94S
TRI CITIES     CLEAR     64  57  78 S7        29.91F
TROY           CLEAR     64  53  68 CALM      29.95S
SAGINAW HB     PTCLDY    63  57  82 S7        29.91S
$$
MIZ043>046-050>051-056>058-064>065-071>073-077>080-260900-
SOUTHWEST LOWER MICHIGAN

CITY           SKY/WX    TMP DP  RH WIND       PRES   REMARKS
BATTLE CREEK   PTCLDY    61  56  83 S5        29.94S
BENTON HARBOR  CLEAR     59  57  93 SE5       29.90F
BIG RAPIDS     PTCLDY    60  59  95 CALM      29.89F
COLDWATER      CLEAR     61  58  90 CALM      29.94S
FREMONT        FAIR      60  59  97 CALM      29.88F
HOLLAND        CLEAR     63  59  87 S5        29.90F
GRAND RAPIDS   CLEAR     63  58  83 S6        29.91F
IONIA          FAIR      61  57  87 S5        29.90F
KALAMAZOO      CLEAR     63  58  83 S6        29.92F
LUDINGTON      MOCLDY    64  61  88 SW9       29.88R
MARSHALL       CLEAR     59  57  92 S8        29.93S
MOUNT PLEASANT CLEAR     62  57  86 CALM      29.90S
MUSKEGON       PTCLDY    66  60  81 S8        29.89F
SOUTH HAVEN    CLEAR     61  60  95 CALM      29.90F
$$
MIZ016>042-260900-
NORTHERN LOWER MICHIGAN

CITY           SKY/WX    TMP DP  RH WIND       PRES   REMARKS
ALPENA         CLOUDY    64  58  80 SW3       29.87S
BEAVER ISLAND  CLOUDY    62  59  90 SW6       29.83S
BELLAIRE       CLOUDY    67  57  71 S6        29.85S
CADILLAC       MOCLDY    62  59  91 SW7       29.88S
CHARLEVOIX     CLOUDY    67  59  75 S5        29.87S
FRANKFORT      CLOUDY    65  59  80 SW5       29.86S
GAYLORD        CLOUDY    63  55  75 SW6       29.88R
GRAYLING       CLOUDY    64  59  83 SW5       29.89S
HARBOR SPRINGS CLOUDY    67  60  78 SW5       29.84F
HOUGHTON LAKE  CLEAR     63  57  81 SW9       29.89F
MANISTEE       CLOUDY    63  57  82 CALM      29.88S
OSCODA         CLOUDY    66  57  73 SW6       29.88S
PELLSTON       CLOUDY    66  58  75 SW8       29.84F
ROGERS CITY    CLOUDY    64  59  83 SW6       29.86S
TRAVERSE CITY  CLOUDY    66  57  72 CALM      29.85R
$$
MIZ007>008-015-260900-
EASTERN UPPER MICHIGAN

CITY           SKY/WX    TMP DP  RH WIND       PRES   REMARKS
KINROSS        CLOUDY    61  59  94 S5        29.83S
MACKINAC ISLAN CLOUDY    64  60  86 SW8       29.83F
NEWBERRY       PTCLDY    58  57  97 SW6       29.81F FOG
S. S. MARIE    CLOUDY    62  58  86 SW3       29.82F
MUNISING         N/A     66  60  81 SW6       29.78S
$$
MIZ004>006-011>014-085-260900-
CENTRAL UPPER MICHIGAN

CITY           SKY/WX    TMP DP  RH WIND       PRES   REMARKS
MANISTIQUE     CLOUDY    59  58  96 S5        29.81F FOG
ESCANABA       CLOUDY    64  59  82 SW6       29.81S
MENOMINEE      MOCLDY    66  61  82 SW6       29.81F
SAWYER-GWINN   CLOUDY    64  61  90 SW6       29.80F
$$
MIZ001>003-009>011-084-260900-
WESTERN UPPER MICHIGAN

CITY           SKY/WX    TMP DP  RH WIND       PRES   REMARKS
IRON MOUNTAIN  MOCLDY    62  60  93 CALM      29.80F FOG
HOUGHTON       CLOUDY    66  63  90 SW3       29.76F
COPPER HARBOR    N/A     66  62  87 CALM      29.74F
$$

ABBREVIATIONS USED IN REMARKS
   TC - TEMPERATURE IN CELSIUS
  WCI - WIND CHILL INDEX
   HX - HEAT INDEX
  VSB - VISIBILITY




USA.gov is the U.S. government's official web portal to all federal, state and local government web resources and services.